DW8284 Weather Reports


Display with metric or nautical units.
time (UTC)temp
F
wind
direction
speed
MPH
gust
MPH
rain 1hr
in
rain 24hr
in
rain mn
in
humidity
%
barometer
mb
20260906125539 72 0 1.0 3.0 0.00 0.00 0.00 94 1018.7
20260906125040 72 59 1.0 2.0 0.00 0.00 0.00 94 1018.6
20260906124551 72 57 1.0 2.0 0.00 0.00 0.00 95 1018.5
20260906124043 72 57 1.0 3.0 0.00 0.00 0.00 95 1018.4
20260906123538 72 41 1.0 3.0 0.00 0.00 0.00 95 1018.3
20260906123104 72 68 0.0 2.0 0.00 0.00 0.00 95 1018.2
20260906122541 72 137 0.0 2.0 0.00 0.00 0.00 95 1018.2
20260906122041 72 51 0.0 2.0 0.00 0.00 0.00 96 1018.2
20260906121604 72 61 0.0 2.0 0.00 0.00 0.00 96 1018.1
20260906121040 71 51 0.0 2.0 0.00 0.00 0.00 96 1018.0
20260906120540 71 0 0.0 2.0 0.00 0.00 0.00 96 1017.9
20260906120056 71 93 0.0 2.0 0.00 0.00 0.00 96 1017.9
20260906115540 71 68 0.0 2.0 0.00 0.00 0.00 96 1017.9
20260906115039 71 111 0.0 2.0 0.00 0.00 0.00 96 1017.8
20260906114555 71 51 1.0 2.0 0.00 0.00 0.00 96 1017.6
20260906114041 71 93 1.0 2.0 0.00 0.00 0.00 96 1017.3
20260906113536 71 80 1.0 2.0 0.00 0.00 0.00 96 1017.2
20260906113104 71 80 0.0 2.0 0.00 0.00 0.00 96 1017.2
20260906112557 71 59 0.0 2.0 0.00 0.00 0.00 96 1017.1
20260906112041 71 56 0.0 2.0 0.00 0.00 0.00 96 1017.1
20260906111556 71 0 0.0 2.0 0.00 0.00 0.00 96 1017.1
20260906111040 71 19 1.0 2.0 0.00 0.00 0.00 96 1017.0
20260906110539 71 68 0.0 2.0 0.00 0.00 0.00 95 1016.9
20260906110050 71 0 0.0 2.0 0.00 0.00 0.00 95 1016.9
20260906105540 71 30 0.0 2.0 0.00 0.00 0.00 95 1016.9
20260906105039 71 51 0.0 2.0 0.00 0.00 0.00 95 1016.8
20260906104619 71 34 0.0 2.0 0.00 0.00 0.00 95 1016.8
20260906104040 71 0 1.0 2.0 0.00 0.00 0.00 95 1016.8
20260906103541 71 51 0.0 2.0 0.00 0.00 0.00 95 1016.9
20260906103059 71 0 0.0 2.0 0.00 0.00 0.00 95 1016.8
20260906102545 71 51 0.0 3.0 0.00 0.00 0.00 95 1016.7
20260906102040 71 34 0.0 3.0 0.00 0.00 0.00 95 1016.7
20260906101557 71 51 0.0 3.0 0.00 0.00 0.00 95 1016.6
20260906101038 71 41 0.0 2.0 0.00 0.00 0.00 95 1016.6
20260906100540 71 0 0.0 2.0 0.00 0.00 0.00 95 1016.6
20260906100053 71 51 0.0 2.0 0.00 0.00 0.00 95 1016.6
20260906095542 71 0 0.0 2.0 0.00 0.00 0.00 95 1016.6
20260906095039 71 93 0.0 2.0 0.00 0.00 0.00 95 1016.6
20260906094637 71 0 0.0 2.0 0.00 0.00 0.00 95 1016.6
20260906094039 71 0 0.0 2.0 0.00 0.00 0.00 95 1016.4
20260906093541 71 0 0.0 2.0 0.00 0.00 0.00 95 1016.5
20260906093103 71 34 0.0 2.0 0.00 0.00 0.00 95 1016.5
20260906092540 71 0 0.0 2.0 0.00 0.00 0.00 94 1016.4
20260906092040 71 22 0.0 2.0 0.00 0.00 0.00 94 1016.5
20260906091613 71 9 0.0 2.0 0.00 0.00 0.00 94 1016.4
20260906091042 71 0 0.0 2.0 0.00 0.00 0.00 94 1016.6
20260906090540 71 26 0.0 2.0 0.00 0.00 0.00 94 1016.7
20260906085541 71 0 0.0 0.0 0.00 0.00 0.00 94 1016.6
20260906085040 71 0 0.0 0.0 0.00 0.00 0.00 94 1016.7
20260906084557 71 0 0.0 0.0 0.00 0.00 0.00 94 1016.7
20260906084041 71 0 0.0 0.0 0.00 0.00 0.00 94 1016.7
20260906083540 71 0 0.0 0.0 0.00 0.00 0.00 94 1016.8
20260906083054 71 0 0.0 0.0 0.00 0.00 0.00 94 1016.8
20260906082540 71 0 0.0 0.0 0.00 0.00 0.00 94 1016.7
20260906082043 71 0 0.0 0.0 0.00 0.00 0.00 94 1016.7
20260906081600 71 0 0.0 0.0 0.00 0.00 0.00 94 1016.7
20260906081040 71 0 0.0 2.0 0.00 0.00 0.00 94 1016.6
20260906080541 71 0 0.0 2.0 0.00 0.00 0.00 94 1016.6
20260906080100 71 22 0.0 1.0 0.00 0.00 0.00 93 1016.6
20260906075538 71 0 0.0 1.0 0.00 0.00 0.00 93 1016.5
20260906075039 71 0 0.0 0.0 0.00 0.00 0.00 94 1016.6
20260906074559 71 0 0.0 0.0 0.00 0.00 0.00 94 1016.7
20260906074038 71 0 0.0 0.0 0.00 0.00 0.00 93 1016.7
20260906073540 71 0 0.0 0.0 0.00 0.00 0.00 93 1016.8
20260906073102 71 0 0.0 0.0 0.00 0.00 0.00 93 1016.9
20260906072540 71 0 0.0 1.0 0.00 0.00 0.00 93 1016.9
20260906072040 71 0 0.0 1.0 0.00 0.00 0.00 93 1016.9
20260906071559 71 0 0.0 1.0 0.00 0.00 0.00 93 1016.8
20260906071044 71 0 0.0 1.0 0.00 0.00 0.00 92 1016.9
20260906070540 71 0 0.0 1.0 0.00 0.00 0.00 92 1016.9
20260906070056 71 0 0.0 1.0 0.00 0.00 0.00 92 1016.8
20260906065538 71 0 0.0 1.0 0.00 0.00 0.00 92 1016.8
20260906065040 71 0 0.0 1.0 0.00 0.00 0.00 92 1016.8
20260906064600 71 0 0.0 0.0 0.00 0.00 0.00 92 1016.8
20260906064040 72 0 0.0 0.0 0.00 0.00 0.00 92 1016.8
20260906063540 72 0 0.0 0.0 0.00 0.00 0.00 92 1016.7
20260906063100 72 0 0.0 1.0 0.00 0.00 0.00 92 1016.9
20260906062540 72 0 0.0 1.0 0.00 0.00 0.00 92 1017.0
20260906062040 72 0 0.0 1.0 0.00 0.00 0.00 92 1017.0
20260906061557 72 0 0.0 2.0 0.00 0.00 0.00 92 1017.0
20260906061040 72 0 0.0 2.0 0.00 0.00 0.00 92 1017.1
20260906060540 72 26 0.0 2.0 0.00 0.00 0.00 92 1017.1
20260906060059 72 34 0.0 2.0 0.00 0.00 0.00 92 1017.1
20260906055540 72 51 1.0 2.0 0.00 0.00 0.00 91 1017.1
20260906055040 72 9 1.0 2.0 0.00 0.00 0.00 91 1017.2
20260906054559 72 51 0.0 2.0 0.00 0.00 0.00 91 1017.1
20260906054040 72 0 0.0 2.0 0.00 0.00 0.00 91 1017.1
20260906053540 72 0 0.0 2.0 0.00 0.00 0.00 91 1017.0
20260906053109 73 44 0.0 2.0 0.00 0.00 0.00 91 1017.0
20260906052543 73 93 0.0 2.0 0.00 0.00 0.00 91 1016.9
20260906052041 73 93 0.0 2.0 0.00 0.00 0.00 91 1016.9
20260906051603 73 0 0.0 2.0 0.00 0.00 0.00 91 1016.8
20260906051047 73 0 0.0 2.0 0.00 0.00 0.00 91 1016.7
20260906050543 73 0 0.0 2.0 0.00 0.00 0.00 91 1016.6
20260906050114 73 93 0.0 2.0 0.00 0.00 0.00 91 1016.4
20260906045539 73 0 0.0 2.0 0.00 0.00 0.00 91 1016.4
20260906045040 73 61 0.0 2.0 0.00 0.00 0.00 90 1016.3
20260906044558 74 61 0.0 2.0 0.00 0.00 0.00 90 1016.2
20260906044039 74 0 0.0 2.0 0.00 0.00 0.00 90 1016.2
20260906043539 74 0 0.0 2.0 0.00 0.00 0.00 90 1016.1
20260906043057 74 0 0.0 2.0 0.00 0.00 0.00 90 1016.1
20260906042542 74 68 0.0 2.0 0.00 0.00 0.00 90 1016.0
20260906042039 74 51 0.0 3.0 0.00 0.00 0.00 89 1016.0
20260906041556 74 68 0.0 3.0 0.00 0.00 0.00 89 1016.0
20260906041041 74 43 0.0 3.0 0.00 0.00 0.00 89 1015.9
20260906040542 75 93 0.0 3.0 0.00 0.00 0.00 89 1015.9
20260906040135 75 59 0.0 3.0 0.00 0.00 0.00 89 1015.8
20260906035542 75 59 1.0 3.0 0.00 0.00 0.00 89 1015.8
20260906035040 75 76 1.0 3.0 0.00 0.00 0.00 89 1015.8
20260906034604 75 93 1.0 3.0 0.00 0.00 0.00 88 1015.8
20260906034041 75 61 1.0 3.0 0.00 0.00 0.00 88 1015.6
20260906033540 76 0 0.0 2.0 0.00 0.00 0.00 88 1015.5
20260906033057 76 93 1.0 2.0 0.00 0.00 0.00 88 1015.5
20260906032539 76 59 0.0 3.0 0.00 0.00 0.00 88 1015.6
20260906032038 76 80 0.0 3.0 0.00 0.00 0.00 88 1015.4
20260906031601 76 51 1.0 2.0 0.00 0.00 0.00 87 1015.5
20260906031038 77 76 1.0 2.0 0.00 0.00 0.00 87 1015.5
20260906030539 77 41 1.0 2.0 0.00 0.00 0.00 87 1015.4
20260906030100 77 205 1.0 2.0 0.00 0.00 0.00 87 1015.5
20260906025538 77 93 1.0 2.0 0.00 0.00 0.00 86 1015.5
20260906025040 77 51 0.0 2.0 0.00 0.00 0.00 86 1015.4
20260906024601 77 44 0.0 2.0 0.00 0.00 0.00 86 1015.4
20260906024043 78 93 1.0 2.0 0.00 0.00 0.00 85 1015.4
20260906023541 78 111 0.0 2.0 0.00 0.00 0.00 85 1015.3
20260906023058 78 93 1.0 2.0 0.00 0.00 0.00 85 1015.2
20260906022540 78 0 0.0 2.0 0.00 0.00 0.00 85 1015.3
20260906022041 78 41 0.0 2.0 0.00 0.00 0.00 85 1015.3
20260906021606 79 0 0.0 0.0 0.00 0.00 0.00 85 1015.2
20260906021040 79 0 0.0 0.0 0.00 0.00 0.00 85 1015.2
20260906020540 79 0 0.0 0.0 0.00 0.00 0.00 85 1015.1
20260906020106 79 0 0.0 0.0 0.00 0.00 0.00 84 1015.0
20260906015539 79 0 0.0 4.0 0.00 0.00 0.00 84 1014.9
20260906015040 80 0 0.0 4.0 0.00 0.00 0.00 84 1015.0
20260906014600 80 0 0.0 2.0 0.00 0.00 0.00 84 1015.1
20260906014040 80 34 1.0 3.0 0.00 0.00 0.00 84 1015.0
20260906013540 80 0 0.0 3.0 0.00 0.00 0.00 83 1014.9
20260906013051 81 0 1.0 3.0 0.00 0.00 0.00 83 1014.8
20260906012538 81 51 1.0 3.0 0.00 0.00 0.00 83 1014.7
20260906012038 81 0 0.0 3.0 0.00 0.00 0.00 82 1014.6
20260906011602 81 24 1.0 3.0 0.00 0.00 0.00 82 1014.6
20260906011044 82 76 1.0 3.0 0.00 0.00 0.00 82 1014.4
20260906010541 82 51 1.0 3.0 0.00 0.00 0.00 81 1014.4
20260906010106 82 57 1.0 4.0 0.00 0.00 0.00 81 1014.3
20260906005538 82 76 1.0 4.0 0.00 0.00 0.00 81 1014.3
20260906005038 83 123 1.0 3.0 0.00 0.00 0.00 81 1014.1
20260906004557 83 76 1.0 3.0 0.00 0.00 0.00 81 1014.2
20260906004039 83 61 0.0 2.0 0.00 0.00 0.00 81 1014.1
20260906003540 84 80 1.0 3.0 0.00 0.00 0.00 80 1014.1
20260906003102 84 80 1.0 3.0 0.00 0.00 0.00 80 1013.9
20260906002537 84 68 1.0 3.0 0.00 0.00 0.00 79 1013.9
20260906002041 84 46 1.0 3.0 0.00 0.00 0.00 79 1013.9
20260906001610 85 34 1.0 3.0 0.00 0.00 0.00 78 1013.9
20260906001040 85 45 0.0 3.0 0.00 0.00 0.00 78 1013.9
20260906000541 85 44 0.0 3.0 0.00 0.00 0.00 78 1014.0
20260906000056 85 93 0.0 2.0 0.00 0.00 0.00 78 1014.0
20260905235538 85 111 0.0 3.0 0.00 0.00 0.00 77 1013.9
20260905235038 86 61 1.0 3.0 0.00 0.00 0.00 77 1013.8
20260905234553 86 64 0.0 4.0 0.00 0.00 0.00 77 1013.8
20260905234040 86 44 1.0 4.0 0.00 0.00 0.00 77 1013.8
20260905233539 86 93 1.0 4.0 0.00 0.00 0.00 76 1013.6
20260905233105 87 115 0.0 4.0 0.00 0.00 0.00 77 1013.6
20260905232541 87 59 1.0 4.0 0.00 0.00 0.00 76 1013.5
20260905232041 87 51 1.0 5.0 0.00 0.00 0.00 76 1013.4
20260905231557 87 137 1.0 5.0 0.00 0.00 0.00 77 1013.4
20260905231039 87 68 1.0 4.0 0.00 0.00 0.00 77 1013.4
20260905230538 88 51 0.0 2.0 0.00 0.00 0.00 77 1013.5
20260905230055 88 0 0.0 4.0 0.00 0.00 0.00 77 1013.6
20260905225538 88 178 1.0 4.0 0.00 0.00 0.00 77 1013.5
20260905225040 88 129 1.0 3.0 0.00 0.00 0.00 77 1013.4
20260905224606 88 51 0.0 3.0 0.00 0.00 0.00 77 1013.3
20260905224040 88 68 0.0 2.0 0.00 0.00 0.00 76 1013.4
20260905223540 88 0 0.0 4.0 0.00 0.00 0.00 76 1013.4
20260905223057 88 61 1.0 4.0 0.00 0.00 0.00 76 1013.5
20260905222540 88 153 1.0 3.0 0.00 0.00 0.00 75 1013.5
20260905222041 89 85 0.0 2.0 0.00 0.00 0.00 76 1013.5
20260905221554 89 0 0.0 2.0 0.00 0.00 0.00 76 1013.5
20260905221041 89 68 0.0 2.0 0.00 0.00 0.00 76 1013.5
20260905220544 89 137 0.0 2.0 0.00 0.00 0.00 76 1013.4
20260905215540 89 0 0.0 2.0 0.00 0.00 0.00 75 1013.3
20260905215042 89 51 0.0 2.0 0.00 0.00 0.00 75 1013.4
20260905214600 89 0 0.0 2.0 0.00 0.00 0.00 75 1013.4
20260905214041 89 0 0.0 2.0 0.00 0.00 0.00 74 1013.4
20260905213538 89 0 0.0 3.0 0.00 0.00 0.00 74 1013.4
20260905213106 89 0 0.0 3.0 0.00 0.00 0.00 74 1013.4
20260905212538 90 51 0.0 3.0 0.00 0.00 0.00 75 1013.4
20260905212040 90 0 0.0 3.0 0.00 0.00 0.00 74 1013.3
20260905211558 90 0 0.0 3.0 0.00 0.00 0.00 75 1013.3
20260905211041 90 59 1.0 3.0 0.00 0.00 0.00 75 1013.3
20260905210541 90 0 0.0 2.0 0.00 0.00 0.00 75 1013.3
20260905210108 90 0 0.0 2.0 0.00 0.00 0.00 75 1013.4
20260905205538 90 119 0.0 2.0 0.00 0.00 0.00 75 1013.3
20260905205037 90 51 0.0 2.0 0.00 0.00 0.00 75 1013.4
20260905204549 90 265 0.0 2.0 0.00 0.00 0.00 75 1013.4
20260905204044 90 0 0.0 2.0 0.00 0.00 0.00 75 1013.4
20260905203542 90 0 0.0 2.0 0.00 0.00 0.00 75 1013.6
20260905203058 90 0 0.0 2.0 0.00 0.00 0.00 75 1013.5
20260905202539 90 0 0.0 2.0 0.00 0.00 0.00 75 1013.6
20260905202040 90 68 0.0 2.0 0.00 0.00 0.00 75 1013.7
20260905201603 90 0 0.0 2.0 0.00 0.00 0.00 75 1013.6
20260905201040 90 51 0.0 2.0 0.00 0.00 0.00 75 1013.6
20260905200538 90 0 0.0 4.0 0.00 0.00 0.00 75 1013.6
20260905200120 90 0 0.0 4.0 0.00 0.00 0.00 75 1013.7
20260905195538 90 0 0.0 2.0 0.00 0.00 0.00 75 1013.7
20260905195038 90 0 0.0 2.0 0.00 0.00 0.00 75 1013.6
20260905194552 90 0 0.0 2.0 0.00 0.00 0.00 74 1013.6
20260905194038 90 247 0.0 2.0 0.00 0.00 0.00 76 1013.7
20260905193538 90 0 0.0 3.0 0.00 0.00 0.00 76 1013.6
20260905193100 90 265 0.0 3.0 0.00 0.00 0.00 75 1013.7
20260905192538 90 0 0.0 3.0 0.00 0.00 0.00 77 1013.7
20260905192042 90 38 0.0 2.0 0.00 0.00 0.00 76 1013.7
20260905191555 90 0 0.0 2.0 0.00 0.00 0.00 75 1013.8
20260905191038 90 51 0.0 2.0 0.00 0.00 0.00 75 1013.9
20260905190539 90 9 0.0 2.0 0.00 0.00 0.00 76 1013.9
20260905190058 90 0 0.0 2.0 0.00 0.00 0.00 77 1013.9
20260905185542 90 0 0.0 2.0 0.00 0.00 0.00 76 1014.0
20260905185042 90 0 0.0 2.0 0.00 0.00 0.00 75 1014.0
20260905184606 90 0 0.0 2.0 0.00 0.00 0.00 78 1014.0
20260905184038 90 0 0.0 2.0 0.00 0.00 0.00 76 1014.0
20260905183539 90 232 0.0 2.0 0.00 0.00 0.00 77 1014.1
20260905183059 90 119 0.0 2.0 0.00 0.00 0.00 78 1014.1
20260905182544 90 162 0.0 2.0 0.00 0.00 0.00 77 1014.2
20260905182038 89 26 0.0 3.0 0.00 0.00 0.00 76 1014.1
20260905181557 89 41 0.0 3.0 0.00 0.00 0.00 77 1014.1
20260905181039 89 247 0.0 3.0 0.00 0.00 0.00 77 1014.1
20260905180545 89 0 0.0 3.0 0.00 0.00 0.00 77 1014.1
20260905180112 89 0 0.0 3.0 0.00 0.00 0.00 77 1014.2
20260905175542 89 34 0.0 3.0 0.00 0.00 0.00 77 1014.2
20260905175043 89 178 0.0 2.0 0.00 0.00 0.00 78 1014.3
20260905174605 89 265 0.0 2.0 0.00 0.00 0.00 78 1014.3
20260905174041 89 0 0.0 2.0 0.00 0.00 0.00 79 1014.3
20260905173538 89 34 0.0 3.0 0.00 0.00 0.00 79 1014.3
20260905173056 88 26 0.0 3.0 0.00 0.00 0.00 79 1014.3
20260905172538 88 0 0.0 2.0 0.00 0.00 0.00 79 1014.3
20260905172038 88 0 0.0 2.0 0.00 0.00 0.00 80 1014.3
20260905171606 88 68 0.0 2.0 0.00 0.00 0.00 80 1014.5
20260905171039 88 0 0.0 2.0 0.00 0.00 0.00 81 1014.5
20260905170539 87 137 0.0 2.0 0.00 0.00 0.00 81 1014.5
20260905170100 87 51 0.0 2.0 0.00 0.00 0.00 82 1014.6
20260905165540 87 0 0.0 2.0 0.00 0.00 0.00 83 1014.5
20260905165040 87 0 0.0 3.0 0.00 0.00 0.00 82 1014.6
20260905164557 87 119 1.0 3.0 0.00 0.00 0.00 82 1014.7
20260905164040 87 0 0.0 3.0 0.00 0.00 0.00 84 1014.7
20260905163538 86 0 0.0 3.0 0.00 0.00 0.00 84 1014.8
20260905163103 86 26 0.0 2.0 0.00 0.00 0.00 83 1014.9
20260905162541 86 9 0.0 2.0 0.00 0.00 0.00 83 1014.8
20260905162039 86 265 0.0 2.0 0.00 0.00 0.00 84 1015.0
20260905161601 85 68 0.0 2.0 0.00 0.00 0.00 84 1014.9
20260905161038 85 0 0.0 2.0 0.00 0.00 0.00 83 1014.8
20260905160539 85 111 0.0 3.0 0.00 0.00 0.00 83 1014.8
20260905155538 84 80 0.0 2.0 0.00 0.00 0.00 84 1014.8
20260905155038 84 221 0.0 2.0 0.00 0.00 0.00 84 1014.7
20260905154557 84 0 0.0 2.0 0.00 0.00 0.00 85 1014.7
20260905154040 83 0 0.0 2.0 0.00 0.00 0.00 85 1014.6
20260905153540 83 0 0.0 2.0 0.00 0.00 0.00 86 1014.5
20260905153059 83 221 0.0 2.0 0.00 0.00 0.00 87 1014.5
20260905152541 83 80 0.0 2.0 0.00 0.00 0.00 87 1014.5
20260905152042 82 0 0.0 2.0 0.00 0.00 0.00 88 1014.6
20260905151556 82 325 0.0 2.0 0.00 0.00 0.00 89 1014.5
20260905151041 82 0 0.0 2.0 0.00 0.00 0.00 89 1014.5
20260905150538 81 0 0.0 3.0 0.00 0.00 0.00 90 1014.4
20260905150058 81 0 0.0 3.0 0.00 0.00 0.00 90 1014.4
20260905145537 81 0 0.0 2.0 0.00 0.00 0.00 92 1014.5
20260905145041 80 0 0.0 2.0 0.00 0.00 0.00 92 1014.3
20260905144604 80 0 0.0 2.0 0.00 0.00 0.00 93 1014.4
20260905144039 80 0 0.0 2.0 0.00 0.00 0.00 93 1014.3
20260905143538 80 0 0.0 2.0 0.00 0.00 0.00 94 1014.2
20260905143059 79 0 0.0 2.0 0.00 0.00 0.00 95 1014.1
20260905142540 79 0 0.0 2.0 0.00 0.00 0.00 95 1014.0
20260905142037 79 0 0.0 2.0 0.00 0.00 0.00 96 1014.0
20260905141601 79 0 0.0 1.0 0.00 0.00 0.00 96 1014.0
20260905141038 79 0 0.0 1.0 0.00 0.00 0.00 96 1014.2
20260905140538 78 0 0.0 2.0 0.00 0.00 0.00 96 1014.2
20260905140105 78 0 0.0 2.0 0.00 0.00 0.00 96 1014.2
20260905135540 78 0 0.0 1.0 0.00 0.00 0.00 96 1014.1
20260905135040 78 0 0.0 1.0 0.00 0.00 0.00 96 1014.1
20260905134558 77 0 0.0 1.0 0.00 0.00 0.00 96 1014.2
20260905134040 77 0 0.0 1.0 0.00 0.00 0.00 96 1014.0
20260905133538 77 0 0.0 1.0 0.00 0.00 0.00 97 1014.1
20260905133130 77 0 0.0 1.0 0.00 0.00 0.00 97 1014.3
20260905132538 77 0 0.0 1.0 0.00 0.00 0.00 97 1014.4
20260905132038 76 0 0.0 1.0 0.00 0.00 0.00 97 1014.3
20260905131608 76 0 0.0 1.0 0.00 0.00 0.00 97 1014.2
20260905131040 76 0 0.0 1.0 0.00 0.00 0.00 97 1014.1
20260905130538 76 0 0.0 1.0 0.00 0.00 0.00 97 1014.1
20260905130058 76 0 0.0 1.0 0.00 0.00 0.00 97 1014.0